Location: Unspecified
(38.9820°N, 94.4650°W)
Time: 20:50:02
(UTC-05:00)

Resurs 1-4 Rocket - Visible Passes

Search period start: 01 September 2014 00:00
Search period end: 11 September 2014 00:00
Orbit: 800 x 815 km, 98.3° (Epoch: 31 August)

Date Brightness Start Highest point End Pass type
(mag) Time Alt. Az. Time Alt. Az. Time Alt. Az.
01 Sep 3.8 04:38:41 10° NE 04:43:19 30° E 04:47:55 10° SSE visible
02 Sep 4.5 04:15:10 10° NE 04:18:42 18° E 04:22:14 10° SE visible
02 Sep 2.3 05:53:43 10° N 05:58:51 52° WNW 06:03:57 10° SSW visible
03 Sep 2.1 05:29:11 10° NNE 05:34:30 88° WNW 05:39:48 10° SSW visible
04 Sep 2.8 05:04:53 10° NNE 05:10:04 55° E 05:15:15 10° S visible
05 Sep 3.7 04:40:50 10° NNE 04:45:34 32° E 04:50:16 10° SSE visible
05 Sep 3.0 06:20:46 10° N 06:25:19 30° WNW 06:29:51 10° SW visible
06 Sep 4.5 04:17:15 10° NE 04:20:58 19° E 04:24:40 10° SE visible
06 Sep 2.4 05:55:59 10° N 06:01:04 49° WNW 06:06:09 10° SW visible
07 Sep 4.9 03:55:07 10° ENE 03:56:17 11° E 03:57:26 10° ESE visible
07 Sep 2.0 05:31:25 10° N 05:36:44 83° WNW 05:42:02 10° SSW visible
08 Sep 2.6 05:07:05 10° NNE 05:12:19 59° E 05:17:31 10° S visible
09 Sep 3.6 04:43:00 10° NNE 04:47:49 34° E 04:52:36 10° SSE visible
09 Sep 3.1 06:23:04 10° N 06:27:31 28° WNW 06:31:59 10° SW visible
10 Sep 4.4 04:19:20 10° NE 04:23:13 20° E 04:27:06 10° SE visible
10 Sep 2.4 05:58:14 10° N 06:03:17 47° WNW 06:08:20 10° SW visible
